Weather Roundup
Issued by NWS Springfield, MO

Home | Current Version | Previous Version | Text Only | Print | Product List | Glossary On
Versions: 1 2 3 4 5 6 7 8 9 10 11 12 13 14 15 16 17 18 19 20 21 22 23 24 25 26 27 28 29 30 31 32 33 34 35 36 37 38 39 40 41 42 43 44 45 46 47 48 49 50
000
NZUS99 KSGF 270057
HRRSGF

HOURLY WEATHER
NATIONAL WEATHER SERVICE SPRINGFIELD MO
800 PM CDT SUN MAR 26 2017

......SGF CWA......

CITY           SKY/WX    TMP DP  RH WIND       PRES   REMARKS
SPRINGFIELD    MOCLDY    63  49  60 E8        29.84F
JOPLIN         MOCLDY    63  51  65 N7        29.82R
WEST PLAINS    CLOUDY    60  49  66 E5        29.90F
ROLLA          PTCLDY    57  50  77 NE5       29.91R
BRANSON        CLOUDY    63  50  63 SE7       29.86F

......SURROUNDING SGF CWA......

CITY           SKY/WX    TMP DP  RH WIND       PRES   REMARKS
CHANUTE        CLOUDY    57  51  80 E10       29.82R
PARSONS        MOCLDY    60  52  74 E7        29.78F
COFFEYVILLE    PTCLDY    61  52  72 E9        29.77F
EMPORIA        LGT RAIN  50  50 100 NE15      29.84F
HARRISON AR    CLOUDY    64  47  53 SE8       29.86F

......KANSAS AND MISSOURI......

CITY           SKY/WX    TMP DP  RH WIND       PRES   REMARKS
KANSAS CTY INT CLOUDY    50  45  83 N5        29.94R
SEDALIA        CLOUDY    55  49  80 CALM      29.93R
ST JOSEPH      CLOUDY    48  44  86 NW3       29.96R
ST LOUIS       CLOUDY    58  49  72 N6        29.94R
WICHITA        LGT RAIN  53  49  86 NE15      29.79R
TOPEKA         RAIN      49  48  97 N8        29.94R FOG
OLATHE         CLOUDY    51  45  79 NE3       29.92F

......TENNESSEE......

CITY           SKY/WX    TMP DP  RH WIND       PRES   REMARKS
MEMPHIS        NOT AVBL
NASHVILLE      MOCLDY    66  54  65 S6        29.99R

......ARKANSAS.......

CITY           SKY/WX    TMP DP  RH WIND       PRES   REMARKS
FAYETTEVILLE   CLOUDY    66  51  58 SE9       29.81S
FT SMITH       CLOUDY    68  52  56 NE7       29.78S
LITTLE ROCK    CLOUDY    66  55  67 E7        29.88F

......OKLAHOMA.......

CITY           SKY/WX    TMP DP  RH WIND       PRES   REMARKS
TULSA          LGT RAIN  65  54  67 SE3       29.74S
MCALESTER      TSTM      73  55  53 SE6       29.71F
OKLAHOMA CITY  PTCLDY    66  59  78 SE9       29.67F

......IOWA............

CITY           SKY/WX    TMP DP  RH WIND       PRES   REMARKS
DES MOINES     NOT AVBL
QUAD CITIES    CLOUDY    51  46  83 W13       29.89R

......ILLINOIS........

CITY           SKY/WX    TMP DP  RH WIND       PRES   REMARKS
QUINCY         CLOUDY    50  45  83 W6        29.94R
CHICAGO        DRIZZLE   56  51  84 SW8       29.85R



USA.gov is the U.S. government's official web portal to all federal, state and local government web resources and services.